Flag for U.S.A. Weather past 2 weeks in Binghamton, New York, U.S.A.

Now
63 °F

Fog.


Feels Like: 63 °F
Forecast: 64 / 77 °F
Wind: 5 mph from Southeast

Location: Binghamton Regional Airport

Current Time: Aug 22, 2014 at 10:10:28 AM

Latest Report: Aug 22, 2014 at 8:53 AM


Visibility: 0 mi

Pressure: 30.02 "Hg

Humidity: 97%

Dew point: 62 °F

Location of BinghamtonLocation

Historic Weather in Binghamton — Graph

°F

Binghamton temperature yesterday

Maximum temperature yesterday: 78 °F (at 2:53 PM)
Minimum temperature yesterday: 63 °F (at 11:53 PM)
Average temperature yesterday: 68 °F

Past Weeks' High & Low Weather Summary

 TemperatureHumidityPressure
High80 °F (Aug 10, 4:53 PM)100% (Aug 12, 8:59 AM)30.19 "Hg (Aug 12, 8:59 AM)
Low48 °F (Aug 19, 6:53 AM)36% (Aug 10, 4:53 PM)29.74 "Hg (Aug 13, 3:53 PM)
Average64 °F75%29.98 "Hg
* Reported Aug 7 8:53 AM — Aug 22 8:53 AM, Binghamton, Weather by CustomWeather, © 2014

Note: Actual official high and low records may vary slightly from our data, if they occured in-between our weather recording intervals... More about our weather records

Advertising

Binghamton weather history for previous 24 hours

 ConditionsComfort  
Time TempWeatherWind HumidityBarometerVisibility
8:53 AM
Aug 22
63 °FFog.5 mph97%30.02 "Hg0 mi
7:53 AM61 °FFog.No wind100%30.02 "Hg0 mi
6:53 AM60 °FFog.3 mph96%30.01 "Hg0 mi
5:53 AM60 °FFog.3 mph100%30.00 "Hg0 mi
4:53 AM60 °FFog.No wind100%30.00 "Hg0 mi
3:53 AM60 °FFog.5 mph100%29.99 "Hg0 mi
3:04 AM61 °FFog.No wind100%30.01 "Hg0 mi
2:53 AM61 °FFog.No wind100%29.98 "Hg1 mi
1:53 AM62 °FPassing clouds.No wind96%29.99 "Hg10 mi
12:53 AM64 °FPassing clouds.3 mph94%29.98 "Hg10 mi
11:53 PM
Aug 21
63 °FPassing clouds.3 mph97%29.99 "Hg10 mi
10:53 PM64 °FClear.5 mph94%29.99 "Hg10 mi
9:53 PM65 °FThundershowers. Passing clouds.6 mph91%30.00 "Hg10 mi
8:53 PM66 °FThundershowers. Broken clouds.3 mph90%29.99 "Hg10 mi
7:53 PM66 °FThundershowers. Mostly cloudy.7 mph90%29.98 "Hg10 mi
6:53 PM67 °FScattered clouds.6 mph87%29.98 "Hg10 mi
5:53 PM66 °FPassing clouds.5 mph90%29.97 "Hg10 mi
4:53 PM66 °FStrong thunderstorms. Cloudy.7 mph84%29.98 "Hg1 mi
3:53 PM71 °FThunderstorms. Broken clouds.6 mph78%29.96 "Hg10 mi
2:53 PM78 °FThunderstorms. Partly sunny.9 mph66%29.97 "Hg10 mi
1:53 PM73 °FThunderstorms. Broken clouds.7 mph84%29.98 "Hg5 mi
12:53 PM76 °FBroken clouds.9 mph74%29.98 "Hg10 mi
11:53 AM75 °FCloudy.7 mph76%30.01 "Hg10 mi
10:53 AM72 °FPartly sunny.8 mph84%30.01 "Hg10 mi
Weather by CustomWeather, © 2014

See weather overviewHow to use our weather pages